Weather Roundup
Issued by NWS Corpus Christi, TX

Home | Current Version | Previous Version | Text Only | Print | Product List | Glossary On
Versions: 1 2 3 4 5 6 7 8 9 10 11 12 13 14 15 16 17 18 19 20 21 22 23 24 25 26 27 28 29 30 31 32 33 34 35 36 37 38 39 40 41 42 43 44 45 46 47 48 49 50
000
ASUS44 KCRP 252210
HRRCRP

SOUTH TEXAS REGIONAL WEATHER ROUNDUP
NATIONAL WEATHER SERVICE CORPUS CHRISTI TX
500 PM CDT MON JUL 25 2016


TXZ229>244-252300-
...CORPUS CHRISTI AREA OBSERVATIONS...

CITY           SKY/WX    TMP DP  RH WIND       PRES   REMARKS
CORPUS CHRISTI PTSUNNY   94  73  50 E14       29.86S HX 103
NAS CORPUS CHR PTSUNNY   91  79  67 SE18      29.87F HX 107
ROCKPORT       SUNNY     92  75  57 SE13G23   29.86F HX 103
KINGSVILLE NAS PTSUNNY   95  78  58 SE15      29.84F HX 111
ALICE          PTSUNNY  102  65  29 E13       29.82F HX 105
FALFURRIAS     PTSUNNY   96  72  45 E14G21    29.82F HX 105
$$

...VICTORIA AREA OBSERVATIONS...

CITY           SKY/WX    TMP DP  RH WIND       PRES   REMARKS
VICTORIA       CLOUDY    94  70  45 S13       29.85F HX 100
BEEVILLE       FAIR     100  70  38 E3        29.84S HX 107
PLEASANTON     MOSUNNY   99  63  29 E8        29.84F HX 101
SAN ANTONIO    PTSUNNY   88  69  53 N16G25    29.88R HX  92
$$

...LAREDO AREA OBSERVATIONS...

CITY           SKY/WX    TMP DP  RH WIND       PRES   REMARKS
LAREDO         MOSUNNY  102  68  33 VRB3      29.81F HX 108
COTULLA        MOSUNNY  100  61  27 VRB5      29.82F HX 101
DEL RIO        PTSUNNY  102  62  26 SE10G23   29.83F HX 104
MCALLEN        MOSUNNY  100  70  37 SE13      29.83F HX 107
HEBBRONVILLE   MOSUNNY  100  60  27 E10G16    29.85F HX 100
$$

...OTHER TEXAS OBSERVATIONS...

CITY           SKY/WX    TMP DP  RH WIND       PRES   REMARKS
BROWNSVILLE    SUNNY     93  75  55 S15       29.87S HX 104
HOUSTON        CLOUDY    85  74  69 SE18G25   29.90S HX  92
COL. STATION   CLOUDY    91  71  51 N15       29.88F HX  97
AUSTIN         PTSUNNY  100  67  33 E8G21     29.85F HX 105
WACO           HVY RAIN  88  72  58 E12G26    29.87R HX  94
FORT WORTH     CLOUDY    94  70  45 E14       29.89R THUNDER HX 100
WICHITA FALLS  SUNNY    101  67  32 E8        29.88F HX 106
LUBBOCK        MOSUNNY  100  58  24 E10G18    30.01F HX  99
EL PASO        MOSUNNY   99  46  16 E9G18     29.99F HX  95
$$

...MARINE OBSERVATIONS...

STATION/POSITION TIME  SKY/WX   TEMP    WIND        PRES    VSBY  WAVE   SWELL
                                AIR SEA DIR/SP/G                  HT/PER HT/PER
                 (UTC)          (F)     (DEG/KT/KT) (MB)    (MI)  (FT/S) (FT/S)
PORT ARANSAS     2200            85 90  140/ 15/ 17 1011.7F
BUOY 90 E PORT A 2150            85 87  110/  4/  6 1012.7F         2/ 5   2/ 5
BUOY 45 SE BAFFI 2150            85 85  150/ 12/ 14 1011.5F         2/ 5
BUOY 200 E PT IS 2150            86 87  200/  4/  6 1013.9S         2/ 5   2/ 5
BUOY 15 E GALVES 2150            80 88  130/ 10/ 10 1012.7F         1/ 5
$$




USA.gov is the U.S. government's official web portal to all federal, state and local government web resources and services.